Regional Weather Roundup
Issued by NWS

Home | Current Version | Previous Version | Text Only | Print | Product List | Glossary Off
Versions: 1 2 3 4 5 6 7 8 9 10 11 12 13 14 15 16 17 18 19 20 21 22 23 24 25 26 27 28 29 30 31 32 33 34 35 36 37 38 39 40 41 42 43 44 45 46 47 48 49 50

000
ASUS43 KBIS 220802
RWRND

NORTH DAKOTA REGIONAL WEATHER ROUNDUP
NATIONAL WEATHER SERVICE BISMARCK ND
200 AM CST MON JAN 22 2018

NOTE: "FAIR" INDICATES FEW OR NO CLOUDS BELOW 12,000 FEET WITH NO
SIGNIFICANT WEATHER AND/OR OBSTRUCTIONS TO VISIBILITY.


NDZ001>003-009>011-017-220900-
NORTHWEST NORTH DAKOTA

CITY           SKY/WX    TMP DP  RH WIND       PRES   REMARKS
WILLISTON      CLEAR      9   6  88 CALM      30.01S
MINOT          CLEAR     15  12  88 W5        30.00S WCI   8
MINOT AFB      CLEAR      9   6  87 NW5       29.99F WCI   1
$$

NDZ018>021-031>035-040>046-220900-
SOUTHWEST NORTH DAKOTA

CITY           SKY/WX    TMP DP  RH WIND       PRES   REMARKS
BISMARCK       FOG       18  17  96 SE3       30.03F VSB 1/4
DICKINSON      CLEAR     17  13  84 W12       29.95F WCI   4
GARRISON         N/A      7   3  84 N3        30.00S
HETTINGER ARPT CLEAR     12   8  84 CALM      30.00S
$$

NDZ004>008-012>016-024-026-027-054-220900-
NORTHEAST NORTH DAKOTA

CITY           SKY/WX    TMP DP  RH WIND       PRES   REMARKS
GRAND FORKS    CLOUDY    23  21  92 N6        30.09F WCI  16
DEVILS LAKE    CLOUDY    22  20  92 CALM      30.06
$$

NDZ022-023-025-028>030-036>039-047>053-220900-
SOUTHEAST NORTH DAKOTA

CITY           SKY/WX    TMP DP  RH WIND       PRES   REMARKS
FARGO          CLOUDY    25  23  92 NE10      30.03F WCI  15
JAMESTOWN      CLOUDY    24  22  91 NE8       30.01F WCI  15
$$





USA.gov is the U.S. government's official web portal to all federal, state and local government web resources and services.